Regional Weather Roundup
Issued by NWS

Home | Current Version | Previous Version | Graphics & Text | Print | Product List | Glossary On
Versions: 1 2 3 4 5 6 7 8 9 10 11 12 13 14 15 16 17 18 19 20 21 22 23 24 25 26 27 28 29 30 31 32 33 34 35 36 37 38 39 40 41 42 43 44 45 46 47 48 49 50
000
ASUS43 KTOP 171208
RWRKS

WEATHER ROUNDUP FOR KANSAS
NATIONAL WEATHER SERVICE GOODLAND KS
600 AM CST FRI NOV 17 2017

NOTE:  "FAIR" INDICATES FEW OR NO CLOUDS BELOW 12,000 FEET WITH NO
SIGNIFICANT WEATHER AND/OR OBSTRUCTIONS TO VISIBILITY.

KSZ001>006-013>018-027>032-041>047-171300-
NORTHWEST KANSAS

CITY           SKY/WX    TMP DP  RH WIND       PRES   REMARKS
GOODLAND       CLOUDY    55  32  41 SW9       29.64S
6HR MIN TEMP:  46; 6HR MAX TEMP:  56;

HAYS           CLOUDY    48  47  96 SW12      29.64F
HILL CITY      CLOUDY    45  42  89 NW3       29.61F
6HR MIN TEMP:  45; 6HR MAX TEMP:  52;

RUSSELL        CLOUDY    53  53 100 S18       29.61F
6HR MIN TEMP:  52; 6HR MAX TEMP:  54;

$$

KSZ061>065-074>080-084>089-171300-
SOUTHWEST KANSAS

CITY           SKY/WX    TMP DP  RH WIND       PRES   REMARKS
DODGE CITY     PTCLDY    48  44  86 SW15      29.68F
6HR MIN TEMP:  47; 6HR MAX TEMP:  49;

ELKHART        CLOUDY    59  34  38 SW13      29.74F
GARDEN CITY    CLOUDY    46  37  71 S10       29.67F
6HR MIN TEMP:  44; 6HR MAX TEMP:  48;

LIBERAL        CLOUDY    52  34  50 SW12      29.70F
PRATT          CLOUDY    54  53  94 S16       29.69F FOG
6HR MIN TEMP:  52; 6HR MAX TEMP:  55;

$$

KSZ066>073-081>083-090>101-171300-
SOUTHEAST KANSAS

CITY           SKY/WX    TMP DP  RH WIND       PRES   REMARKS
CHANUTE        CLOUDY    59  54  83 S16       29.80F
6HR MIN TEMP:  58; 6HR MAX TEMP:  59;

COFFEYVILLE    CLOUDY    60  55  83 S14G22    29.81F
6HR MIN TEMP:  58; 6HR MAX TEMP:  60;

HUTCHINSON     CLOUDY    61  58  90 S16       29.69F
6HR MIN TEMP:  58; 6HR MAX TEMP:  61;

MEDICINE LODGE   N/A     57  56  96 S7        29.71F
NEWTON         CLOUDY    59  57  93 S22G29    29.72S
PARSONS          N/A    N/A N/A N/A MISG      29.81F
WICHITA INTL   CLOUDY    58  58 100 S20G26    29.73S
6HR MIN TEMP:  58; 6HR MAX TEMP:  59; 6HR PCP: TRACE;

WICHITA JABRA  CLOUDY    58  58 100 S18G28    29.74R FOG
6HR MIN TEMP:  57; 6HR MAX TEMP:  58;

WICHITA MCCONL CLOUDY    58  57  96 SW18G29   29.74S
WINFIELD       CLOUDY    58  58 100 S16       29.77F FOG
6HR MIN TEMP:  58; 6HR MAX TEMP:  59;

$$

KSZ007>012-019>026-033>040-048>060-102>105-171300-
NORTHEAST KANSAS

CITY           SKY/WX    TMP DP  RH WIND       PRES   REMARKS
CONCORDIA      MOCLDY    58  55  90 S16       29.64F
6HR MIN TEMP:  52; 6HR MAX TEMP:  59;

EMPORIA        CLOUDY    54  53  97 S16G22    29.75F FOG
6HR MIN TEMP:  54; 6HR MAX TEMP:  57;

LAWRENCE       CLOUDY    57  53  86 SE9       29.78F
6HR MIN TEMP:  51; 6HR MAX TEMP:  57;

MANHATTAN      CLOUDY    61  56  83 S15G22    29.68F
6HR MIN TEMP:  56; 6HR MAX TEMP:  61;

MARYSVILLE     CLOUDY    55  54  94 S15       29.67F
OLATHE IND     CLOUDY    56  51  84 S16G25    29.79F
6HR MIN TEMP:  52; 6HR MAX TEMP:  56;

OLATHE EXE     CLOUDY    54  49  83 S15       29.80F
6HR MIN TEMP:  49; 6HR MAX TEMP:  54;

SALINA         CLOUDY    62  57  83 S13G22    29.66F
6HR MIN TEMP:  60; 6HR MAX TEMP:  62;

TOPEKA BILLARD CLOUDY    56  55  97 S12       29.75F
6HR MIN TEMP:  53; 6HR MAX TEMP:  57;

TOPEKA FORBES  CLOUDY    57  55  93 S13       29.75F
6HR MIN TEMP:  53; 6HR MAX TEMP:  58;

$$




USA.gov is the U.S. government's official web portal to all federal, state and local government web resources and services.